Location: Bronschhofen
(47.4788°N, 9.0353°E)
Time: 20:28:13
(UTC+00:00)

USA 305 - Pass Details

Date: 20 May 2022
Orbit: 549 x 553 km, 54.0° (Epoch: 14 June)

Event Time Altitude Azimuth Distance (km) Brightness Sun altitude
Exits shadow 01:29:46 20° 161° (SSE) 1,288 4.3 -16.6°
Maximum altitude 01:31:03 24° 133° (SE) 1,170 4.4 -16.5°
Drops below altitude 10° 01:34:23 10° 79° (E) 1,825 6.1 -16.2°
Sets 01:36:56 0° 66° (ENE) 2,722 7.4 -15.9°
